Simultaneous Nadir Overpasses (SNOs) Predictions

Prediction of SNOs between NPP and TERRA Satellite Orbit:

Table of predicted SNOs for the next 14.0 days since TLE Epoch: 12/31/2016
Index Date (NPP) Time (NPP) Lat,Lon (NPP) SZA (NPP ) Date (TERRA) Time (TERRA) Lat,Lon (TERRA) SZA (TERRA ) Distance(km) Time Diff (sec)
1 12/31/2016 02:56:41 68.32, 134.53 91.29 12/31/2016 02:56:57 68.35, 134.53 91.31 2.96 16
2 12/31/2016 03:47:23 -68.24, -58.04 88.81 12/31/2016 03:46:27 -68.23, -57.98 88.81 2.44 56
3 01/02/2017 18:22:51 -68.43, 82.86 88.83 01/02/2017 18:23:59 -68.42, 82.85 88.85 0.96 68
4 01/02/2017 19:13:35 68.31,-109.67 91.05 01/02/2017 19:13:26 68.32,-109.63 91.05 2.01 9
5 01/02/2017 20:04:12 -67.95, 58.09 89.32 01/02/2017 20:02:59 -68.03, 57.67 89.23 20.08 73
6 01/05/2017 10:39:45 -68.41,-161.35 89.13 01/05/2017 10:40:28 -68.40,-161.30 89.14 2.45 43
7 01/05/2017 11:30:28 68.24, 6.19 90.70 01/05/2017 11:29:56 68.24, 6.15 90.70 1.36 32
8 01/08/2017 02:06:09 69.13, 146.14 91.29 01/08/2017 02:07:18 69.00, 147.70 91.13 63.40 69
9 01/08/2017 02:56:38 -68.34, -45.49 89.53 01/08/2017 02:56:58 -68.33, -45.50 89.54 1.39 20
10 01/08/2017 03:47:22 68.22, 121.97 90.35 01/08/2017 03:46:25 68.22, 122.02 90.35 1.78 57
11 01/10/2017 18:22:49 68.42, -97.13 90.18 01/10/2017 18:23:56 68.44, -97.12 90.19 1.99 67
12 01/10/2017 19:13:30 -68.28, 70.37 89.98 01/10/2017 19:13:27 -68.28, 70.31 89.98 2.31 3
13 01/10/2017 20:04:10 67.94,-121.90
